Location: Copeville
(33.0796°N, 96.4155°W)
Time: 12:59:40
(UTC+00:00)

SEEDS - Pass Details

Date: 08 April 2023
Orbit: 568 x 587 km, 97.7° (Epoch: 29 May)

Event Time Altitude Azimuth Distance (km) Brightness Sun altitude
Rises 09:57:52 0° 18° (NNE) 2,826 ? -25.9°
Reaches altitude 10° 10:00:06 10° 24° (NNE) 1,919 ? -25.5°
Maximum altitude 10:04:08 48° 99° (E) 773 ? -24.8°
Enters shadow 10:05:16 37° 145° (SE) 918 ? -24.6°
